Location: Berlise
(49.6641°N, 4.1077°E)
Time: 02:30:55
(UTC+00:00)

Cosmos 1400 Rocket - Pass Details

Date: 27 January 2021
Orbit: 520 x 568 km, 81.2° (Epoch: 28 February)

Event Time Altitude Azimuth Distance (km) Brightness Sun altitude
Exits shadow 04:53:29 35° 175° (S) 922 3.9 -24.0°
Maximum altitude 04:55:06 72° 100° (E) 602 3.0 -23.7°
Drops below altitude 10° 04:59:15 10° 16° (NNE) 1,881 5.7 -23.1°
Sets 05:01:27 0° 14° (NNE) 2,783 6.6 -22.7°
